Change the Weather History Date:

Thursday, September 27, 2012

  Actual Average Record
Temperature  
Mean Temperature 70 °F 61 °F  
Max Temperature 77 °F 72 °F 96 °F (1930)
Min Temperature 62 °F 49 °F 30 °F (1947)
Degree Days  
Heating Degree Days 0 5  
Month to date heating degree days 61 67  
Since 1 July heating degree days 61 74  
Cooling Degree Days 5 1  
Month to date cooling degree days 122 90  
Year to date cooling degree days 1135 882  
Growing Degree Days 19 (Base 50)    
Moisture  
Dew Point 62 °F    
Average Humidity 80    
Maximum Humidity 100    
Minimum Humidity 60    
Precipitation  
Precipitation 0.39 in 0.12 in 1.33 in (1985)
Month to date precipitation 3.63 3.21  
Year to date precipitation 25.78 29.45  
Sea Level Pressure  
Sea Level Pressure 30.12 in    
Wind  
Wind Speed 3 mph (North)    
Max Wind Speed 16 mph    
Max Gust Speed 23 mph    
Visibility 7 miles    
Events Rain    
T = Trace of Precipitation, MM = Missing Value Source: NWS Daily Summary

Daily Weather History Graph

Daily Weather History Graph

Search for Another Location

Airport or City:

Trip Planner

Search our weather history database for the weather conditions in past years. The results will help you decide how hot, cold, wet, or windy it might be!

Date:

Astronomy

Sep. 27, 2012 Rise Set
Actual Time 7:04 AM EDT 7:00 PM EDT
Civil Twilight 6:37 AM EDT 7:26 PM EDT
Nautical Twilight 6:06 AM EDT 7:57 PM EDT
Astronomical Twilight 5:35 AM EDT 8:29 PM EDT
Moon 5:30 PM EDT (9/27) 4:32 AM EDT (9/27)
Length of Visible Light 12h 48m
Length of Day
11h 55m
Waxing Gibbous, 94% of the Moon is Illuminated
Sep 27
Waxing Gibbous
Sep 29
Full
Oct 8
Last Quarter
Oct 15
New
Oct 21
First Quarter

Hourly Weather History & Observations

Time (EDT) Temp. Dew Point Humidity Pressure Visibility Wind Dir Wind Speed Gust Speed Precip Events Conditions
12:53 AM 64.9 °F 57.9 °F 78% 30.10 in 10.0 mi South 4.6 mph - N/A   Clear
1:53 AM 63.0 °F 57.9 °F 84% 30.10 in 10.0 mi South 4.6 mph - N/A   Clear
2:53 AM 63.0 °F 59.0 °F 87% 30.10 in 10.0 mi Calm Calm - N/A   Clear
3:53 AM 64.9 °F 60.1 °F 84% 30.14 in 3.0 mi NW 10.4 mph 23.0 mph 0.07 in Rain Heavy Rain
4:01 AM 64.4 °F 60.8 °F 88% 30.13 in 2.5 mi NNW 4.6 mph - 0.06 in Rain Heavy Rain
4:09 AM 64.4 °F 60.8 °F 88% 30.14 in 8.0 mi ESE 3.5 mph - 0.06 in Rain Light Rain
4:53 AM 64.0 °F 60.1 °F 87% 30.13 in 10.0 mi Variable 3.5 mph - 0.06 in   Scattered Clouds
5:53 AM 63.0 °F 60.1 °F 90% 30.13 in 10.0 mi Calm Calm - N/A   Clear
6:53 AM 63.0 °F 60.1 °F 90% 30.15 in 10.0 mi Calm Calm - N/A   Clear
7:53 AM 64.0 °F 60.1 °F 87% 30.16 in 10.0 mi West 6.9 mph - N/A   Clear
8:53 AM 68.0 °F 62.1 °F 81% 30.17 in 10.0 mi West 4.6 mph - N/A   Clear
9:53 AM 69.1 °F 61.0 °F 75% 30.18 in 10.0 mi Calm Calm - N/A   Clear
10:53 AM 73.0 °F 61.0 °F 66% 30.18 in 10.0 mi Calm Calm - N/A   Clear
11:53 AM 75.9 °F 60.1 °F 58% 30.17 in 10.0 mi North 4.6 mph - N/A   Clear
12:53 PM 75.0 °F 62.1 °F 64% 30.16 in 10.0 mi ENE 5.8 mph - N/A   Mostly Cloudy
2:53 PM 75.9 °F 62.1 °F 62% 30.13 in 10.0 mi ENE 5.8 mph - N/A   Scattered Clouds
3:53 PM 75.0 °F 61.0 °F 62% 30.10 in 10.0 mi ENE 8.1 mph - N/A   Clear
4:53 PM 73.0 °F 62.1 °F 68% 30.09 in 10.0 mi ENE 5.8 mph - N/A   Partly Cloudy
5:53 PM 70.0 °F 64.0 °F 81% 30.08 in 10.0 mi SE 3.5 mph - 0.01 in Rain Light Rain
6:53 PM 70.0 °F 64.0 °F 81% 30.09 in 10.0 mi Calm Calm - 0.00 in   Overcast
7:53 PM 69.1 °F 64.0 °F 84% 30.11 in 10.0 mi North 3.5 mph - N/A   Overcast
8:00 PM 69.8 °F 64.4 °F 83% 30.11 in 9.0 mi Calm Calm - 0.00 in Rain Light Rain
8:51 PM 66.2 °F 64.4 °F 94% 30.11 in 2.0 mi West 5.8 mph - 0.10 in Rain Rain
8:53 PM 66.9 °F 64.0 °F 90% 30.10 in 2.5 mi Calm Calm - 0.10 in Rain Light Rain
9:01 PM 66.2 °F 64.4 °F 94% 30.11 in 5.0 mi Calm Calm - 0.01 in Rain Light Rain
9:18 PM 66.2 °F 64.4 °F 94% 30.10 in 3.0 mi NE 4.6 mph - 0.01 in Rain Light Rain
9:53 PM 66.0 °F 64.0 °F 93% 30.10 in 3.0 mi Calm Calm - 0.01 in   Scattered Clouds
10:10 PM 64.4 °F 64.4 °F 100% 30.11 in 2.0 mi Calm Calm - N/A   Mostly Cloudy
10:18 PM 64.4 °F 64.4 °F 100% 30.11 in 1.2 mi Calm Calm - N/A   Mostly Cloudy
10:44 PM 64.4 °F 64.4 °F 100% 30.11 in 1.8 mi Calm Calm - N/A   Mostly Cloudy
10:53 PM 64.9 °F 64.0 °F 97% 30.10 in 1.8 mi West 3.5 mph - N/A   Mostly Cloudy
11:00 PM 66.2 °F 64.4 °F 94% 30.11 in 2.5 mi West 3.5 mph - N/A   Mostly Cloudy
11:13 PM 66.2 °F 64.4 °F 94% 30.11 in 3.0 mi Calm Calm - N/A   Mostly Cloudy
11:29 PM 64.4 °F 64.4 °F 100% 30.10 in 2.5 mi Calm Calm - N/A   Overcast
11:53 PM 64.9 °F 64.0 °F 97% 30.09 in 2.0 mi Calm Calm - N/A   Overcast